Back to catalog

OPS 4682 DEB

AlivePO
NORAD 18784·DEBRIS·🇺🇸 United States

Launched Apr 3, 1965 from Vandenberg Space Force Base

Loading…

Next Passes (next 24 hours)

TLE

FreshSource: Space-Track

Epoch: Sep 14, 2026, 06:14 UTC

1 18784U 65027AL  26257.26038419 -.00000258  00000-0 -91542-3 0  9994
2 18784  90.2596   6.4617 0039426 238.4104 149.3566 12.97120560813932

Track OPS 4682 DEB in real time with AllMySat

Download on the App Store